CZ-2C DEB (43534 NORAD) Tracking and Keplerian Element Data

This shows tracking and keplerian element data for the satellite.

Feedback or suggestion? Click here.




ElementValue
Catalog43534
NameCZ-2C DEB
Epoch Orbit438
Epoch Day219.66665915
Epoch Year2018
RAAN290.3814
Inclination98.0475
Eccentricity0.0025912
Argument of Perigee181.3028
Mean Anonmoly178.8103
Mean Motion14.87680394
Decay Rate3.16E-06
L11 43534U 18056F 18219.66665915 .00000316 00000-0 40932-4 0 9996
L22 43534 98.0475 290.3814 0025912 181.3028 178.8103 14.87680394 4386

Live tracking and technical data element details for CZ-2C DEB (NORAD 43534). CZ-2C DEB can be tracked NOW for your location showing map with azimuth and elevation plus other details from your city location.

Track the satellite on the map from your city or location and see movement details for azimuth, elevation, latitude, longitude, range, height, and movement on the map or in text.







IsCatalogInMostPopularTable: catalog: 43534, numindb: 57
Update: records affected: 1



GetName: 43534 CZ-2C DEB

Hit Count: updated at: Sat, 17 Nov 2018 03:01:07 GMT